User: anonymous   Login
Location: Unspecified
(0.0000°N, 0.0000°E)
Time: 19:04:26
(UTC+00:00)
Language:

ARGOS - Orbit

View from above orbital plane
View from above orbital plane
View from above satellite
View from above satellite

Ground track
Ground track

The orbit data is extracted from the following two-line orbital elements,

1 25634U 99008A   17084.79935680 -.00000007 +00000-0 +17226-4 0  9993
2 25634 098.6286 149.8012 0011339 089.3409 270.9067 14.19307021936632
Epoch (UTC): 25 March 2017 19:11:04
Eccentricity: 0.0011339
inclination: 98.6286°
perigee height: 819 km
apogee height: 836 km
right ascension of ascending node: 149.8012°
argument of perigee: 89.3409°
revolutions per day: 14.19307021
mean anomaly at epoch: 270.9067°
orbit number at epoch: 93663

The dashed part of the orbit path shows where the satellite is in the earth's shadow,  

DLR